When you browse on this site, cookies collect data to enhance your experience and personalize the content and advertising you see.
Visit our Privacy Policy to learn more. By continuing to use the site, you agree to this use of cookies and data.
  • In Switzerland
  • List of Countries
  • For 7 days
  • Water Temperature
  • Weather Map
  • Weather Widgets
  • user-avatar
    Login

    Hourly Weather Dhaka

    Today, 17 October, Thursday

    Time Temperature Precipitation Wind Pressure Humidity
    00:00 +29°C° 0 mm 1 mps 758 mmHg 71%
    01:00 +29°C° 0.1 mm 1 mps 757 mmHg 72%
    02:00 +28°C° 0.1 mm 1 mps 757 mmHg 74%
    03:00 +28°C° 0.1 mm 1 mps 757 mmHg 75%
    04:00 +28°C° 0.2 mm 1 mps 757 mmHg 76%
    05:00 +28°C° 0.2 mm 1 mps 757 mmHg 77%
    06:00 +27°C° 0.2 mm 1 mps 758 mmHg 79%
    07:00 +29°C° 0 mm 1 mps 758 mmHg 74%
    08:00 +30°C° 0 mm 1 mps 759 mmHg 68%
    09:00 +32°C° 0 mm 2 mps 759 mmHg 63%
    10:00 +34°C° 0 mm 2 mps 759 mmHg 60%
    11:00 +34°C° 0 mm 2 mps 758 mmHg 56%
    12:00 +35°C° 0 mm 2 mps 757 mmHg 52%
    13:00 +36°C° 0 mm 2 mps 757 mmHg 52%
    14:00 +36°C° 0 mm 2 mps 756 mmHg 52%
    15:00 +36°C° 0 mm 2 mps 755 mmHg 52%
    16:00 +35°C° 0 mm 2 mps 755 mmHg 56%
    17:00 +34°C° 0 mm 2 mps 755 mmHg 60%
    18:00 +32°C° 0 mm 2 mps 755 mmHg 64%
    19:00 +31°C° 0 mm 2 mps 756 mmHg 66%
    20:00 +30°C° 0 mm 2 mps 757 mmHg 67%
    21:00 +30°C° 0 mm 2 mps 757 mmHg 69%
    22:00 +29°C° 0 mm 2 mps 757 mmHg 70%
    23:00 +29°C° 0 mm 2 mps 757 mmHg 71%

    Tomorrow, 18 October, Friday

    Time Temperature Precipitation Wind Pressure Humidity
    00:00 +29°C° 0 mm 2 mps 757 mmHg 72%
    01:00 +28°C° 0 mm 2 mps 757 mmHg 74%
    02:00 +28°C° 0 mm 2 mps 757 mmHg 75%
    03:00 +28°C° 0 mm 2 mps 757 mmHg 77%
    04:00 +27°C° 0 mm 2 mps 757 mmHg 78%
    05:00 +27°C° 0 mm 1 mps 757 mmHg 79%
    06:00 +27°C° 0 mm 1 mps 757 mmHg 80%
    07:00 +29°C° 0 mm 1 mps 758 mmHg 74%
    08:00 +30°C° 0 mm 2 mps 758 mmHg 69%
    09:00 +31°C° 0 mm 2 mps 759 mmHg 64%
    10:00 +34°C° 0 mm 2 mps 758 mmHg 60%
    11:00 +35°C° 0 mm 2 mps 758 mmHg 56%
    12:00 +36°C° 0 mm 2 mps 757 mmHg 51%
    13:00 +36°C° 0 mm 2 mps 757 mmHg 51%
    14:00 +36°C° 0 mm 2 mps 756 mmHg 50%
    15:00 +36°C° 0 mm 2 mps 755 mmHg 49%
    16:00 +35°C° 0 mm 2 mps 755 mmHg 53%
    17:00 +34°C° 0 mm 2 mps 755 mmHg 57%
    18:00 +31°C° 0 mm 2 mps 755 mmHg 61%
    19:00 +31°C° 0 mm 2 mps 756 mmHg 63%
    20:00 +30°C° 0 mm 2 mps 756 mmHg 65%
    21:00 +30°C° 0 mm 2 mps 757 mmHg 66%
    22:00 +29°C° 0 mm 2 mps 757 mmHg 68%
    23:00 +29°C° 0 mm 2 mps 757 mmHg 70%

    Day after tomorrow, 19 October, Saturday

    Time Temperature Precipitation Wind Pressure Humidity
    00:00 +29°C° 0 mm 2 mps 757 mmHg 72%
    01:00 +28°C° 0 mm 2 mps 757 mmHg 74%
    02:00 +28°C° 0 mm 2 mps 757 mmHg 75%
    03:00 +28°C° 0 mm 2 mps 757 mmHg 77%
    04:00 +27°C° 0 mm 2 mps 757 mmHg 78%
    05:00 +27°C° 0 mm 2 mps 757 mmHg 79%
    06:00 +27°C° 0 mm 1 mps 757 mmHg 80%
    07:00 +29°C° 0 mm 1 mps 758 mmHg 75%
    08:00 +30°C° 0 mm 1 mps 758 mmHg 70%
    09:00 +32°C° 0 mm 1 mps 759 mmHg 65%
    10:00 +33°C° 0 mm 1 mps 759 mmHg 60%
    11:00 +34°C° 0 mm 1 mps 758 mmHg 54%
    12:00 +35°C° 0 mm 1 mps 758 mmHg 48%
    13:00 +36°C° 0 mm 2 mps 757 mmHg 47%
    14:00 +37°C° 0 mm 2 mps 756 mmHg 46%
    15:00 +37°C° 0 mm 3 mps 756 mmHg 45%
    16:00 +35°C° 0 mm 3 mps 756 mmHg 49%
    17:00 +34°C° 0 mm 2 mps 755 mmHg 53%
    18:00 +31°C° 0 mm 2 mps 755 mmHg 57%
    19:00 +31°C° 0 mm 2 mps 756 mmHg 58%
    20:00 +30°C° 0 mm 2 mps 757 mmHg 60%
    21:00 +30°C° 0 mm 2 mps 757 mmHg 61%
    22:00 +29°C° 0 mm 2 mps 757 mmHg 63%
    23:00 +29°C° 0 mm 3 mps 757 mmHg 66%

    20 October, Sunday

    Time Temperature Precipitation Wind Pressure Humidity
    00:00 +29°C° 0 mm 3 mps 757 mmHg 69%
    01:00 +28°C° 0 mm 2 mps 757 mmHg 72%
    02:00 +28°C° 0 mm 2 mps 757 mmHg 75%
    03:00 +28°C° 0 mm 2 mps 757 mmHg 78%
    04:00 +27°C° 0 mm 1 mps 757 mmHg 80%
    05:00 +27°C° 0 mm 1 mps 758 mmHg 81%
    06:00 +27°C° 0 mm 1 mps 758 mmHg 83%
    07:00 +28°C° 0 mm 1 mps 758 mmHg 77%
    08:00 +30°C° 0 mm 1 mps 759 mmHg 71%
    09:00 +31°C° 0 mm 2 mps 759 mmHg 65%
    10:00 +32°C° 0 mm 2 mps 759 mmHg 59%
    11:00 +35°C° 0 mm 2 mps 758 mmHg 53%
    12:00 +36°C° 0 mm 2 mps 758 mmHg 48%
    13:00 +36°C° 0 mm 3 mps 757 mmHg 47%
    14:00 +36°C° 0 mm 3 mps 756 mmHg 46%
    15:00 +36°C° 0 mm 3 mps 756 mmHg 46%
    16:00 +35°C° 0 mm 3 mps 756 mmHg 50%
    17:00 +34°C° 0 mm 3 mps 756 mmHg 54%
    18:00 +31°C° 0 mm 2 mps 756 mmHg 58%
    19:00 +31°C° 0 mm 2 mps 756 mmHg 60%
    20:00 +30°C° 0 mm 3 mps 757 mmHg 62%
    21:00 +29°C° 0 mm 3 mps 757 mmHg 64%
    22:00 +29°C° 0 mm 2 mps 757 mmHg 67%
    23:00 +29°C° 0 mm 2 mps 757 mmHg 69%

    21 October, Monday

    Time Temperature Precipitation Wind Pressure Humidity
    00:00 +28°C° 0 mm 2 mps 757 mmHg 72%
    01:00 +28°C° 0 mm 2 mps 757 mmHg 72%
    02:00 +28°C° 0 mm 1 mps 757 mmHg 72%
    03:00 +27°C° 0 mm 1 mps 756 mmHg 72%
    04:00 +27°C° 0 mm 1 mps 757 mmHg 74%
    05:00 +27°C° 0 mm 1 mps 757 mmHg 75%
    06:00 +27°C° 0 mm 1 mps 757 mmHg 77%
    07:00 +28°C° 0 mm 1 mps 757 mmHg 71%
    08:00 +30°C° 0 mm 1 mps 758 mmHg 66%
    09:00 +31°C° 0 mm 1 mps 758 mmHg 61%
    10:00 +32°C° 0 mm 2 mps 758 mmHg 57%
    11:00 +34°C° 0 mm 3 mps 757 mmHg 53%
    12:00 +35°C° 0 mm 3 mps 756 mmHg 48%
    13:00 +36°C° 0 mm 3 mps 756 mmHg 48%
    14:00 +36°C° 0 mm 4 mps 755 mmHg 48%
    15:00 +36°C° 0 mm 4 mps 754 mmHg 47%
    16:00 +35°C° 0 mm 3 mps 754 mmHg 52%
    17:00 +32°C° 0 mm 2 mps 754 mmHg 56%
    18:00 +31°C° 0 mm 2 mps 754 mmHg 60%
    19:00 +30°C° 0 mm 2 mps 755 mmHg 62%
    20:00 +30°C° 0 mm 2 mps 755 mmHg 64%
    21:00 +29°C° 0 mm 2 mps 755 mmHg 67%
    22:00 +29°C° 0 mm 2 mps 755 mmHg 67%
    23:00 +28°C° 0 mm 2 mps 755 mmHg 68%

    22 October, Tuesday

    Time Temperature Precipitation Wind Pressure Humidity
    00:00 +28°C° 0 mm 2 mps 755 mmHg 69%
    01:00 +28°C° 0 mm 2 mps 755 mmHg 69%
    02:00 +28°C° 0 mm 1 mps 755 mmHg 69%
    03:00 +28°C° 0 mm 1 mps 755 mmHg 69%
    04:00 +28°C° 0 mm 1 mps 755 mmHg 70%
    05:00 +27°C° 0 mm 1 mps 755 mmHg 71%
    06:00 +27°C° 0 mm 1 mps 755 mmHg 72%
    07:00 +28°C° 0 mm 1 mps 756 mmHg 68%
    08:00 +30°C° 0 mm 1 mps 756 mmHg 64%
    09:00 +31°C° 0 mm 2 mps 757 mmHg 60%
    10:00 +32°C° 0 mm 2 mps 756 mmHg 57%
    11:00 +34°C° 0 mm 2 mps 756 mmHg 53%
    12:00 +35°C° 0 mm 2 mps 755 mmHg 50%
    13:00 +35°C° 0 mm 2 mps 755 mmHg 49%
    14:00 +35°C° 0 mm 2 mps 754 mmHg 48%
    15:00 +35°C° 0 mm 2 mps 753 mmHg 48%
    16:00 +34°C° 0 mm 2 mps 753 mmHg 52%
    17:00 +32°C° 0 mm 2 mps 753 mmHg 56%
    18:00 +31°C° 0 mm 2 mps 753 mmHg 59%
    19:00 +30°C° 0 mm 2 mps 754 mmHg 61%
    20:00 +30°C° 0 mm 2 mps 754 mmHg 63%
    21:00 +29°C° 0 mm 1 mps 755 mmHg 65%
    22:00 +29°C° 0 mm 1 mps 755 mmHg 66%
    23:00 +29°C° 0 mm 1 mps 755 mmHg 67%
    Show more